Satellite-Ground Cal/Val Region Overpasses Predictions

Prediction of Satellite NPP Overpassing Cal/Val Region: PacNW

Region Location: (Latitude: 10.00, Longitude: 139.50) to (Latitude: 22.70, Longitude: 165.60).

Table of predicted overpasses for the next 14.0 days since TLE Epoch: 4/24/2022
Interval Starting Time Starting Location Ending Time Ending Location
1 04/24/2022 15:36:37 ( 22.65, 150.80) 04/24/2022 15:40:12 ( 10.03, 147.80)
2 04/25/2022 02:45:42 ( 10.04, 158.33) 04/25/2022 02:49:17 ( 22.67, 155.33)
3 04/25/2022 15:17:35 ( 22.65, 155.57) 04/25/2022 15:21:10 ( 10.03, 152.56)
4 04/26/2022 02:26:40 ( 10.04, 163.09) 04/26/2022 02:30:15 ( 22.66, 160.09)
5 04/26/2022 14:58:32 ( 22.65, 160.33) 04/26/2022 15:02:07 ( 10.03, 157.32)
6 04/27/2022 02:10:21 ( 19.67, 165.59) 04/27/2022 02:11:12 ( 22.66, 164.85)
7 04/27/2022 03:49:07 ( 10.05, 142.48) 04/27/2022 03:52:40 ( 22.56, 139.50)
8 04/27/2022 14:39:30 ( 22.65, 165.09) 04/27/2022 14:43:05 ( 10.03, 162.08)
9 04/27/2022 16:21:00 ( 22.64, 139.71) 04/27/2022 16:21:14 ( 21.82, 139.50)
10 04/28/2022 03:30:05 ( 10.05, 147.24) 04/28/2022 03:33:40 ( 22.67, 144.23)
11 04/28/2022 16:01:57 ( 22.64, 144.47) 04/28/2022 16:05:32 ( 10.02, 141.47)
12 04/29/2022 03:11:02 ( 10.05, 152.00) 04/29/2022 03:14:37 ( 22.67, 148.99)
13 04/29/2022 15:42:55 ( 22.64, 149.23) 04/29/2022 15:46:30 ( 10.02, 146.23)
14 04/30/2022 02:52:00 ( 10.05, 156.75) 04/30/2022 02:55:35 ( 22.68, 153.75)
15 04/30/2022 15:23:51 ( 22.70, 154.00) 04/30/2022 15:27:27 ( 10.02, 150.99)
16 05/01/2022 02:32:57 ( 10.06, 161.51) 05/01/2022 02:36:32 ( 22.68, 158.51)
17 05/01/2022 15:04:49 ( 22.69, 158.76) 05/01/2022 15:08:25 ( 10.02, 155.75)
18 05/02/2022 02:14:45 ( 13.00, 165.60) 05/02/2022 02:17:30 ( 22.68, 163.27)
19 05/02/2022 03:55:24 ( 10.01, 140.91) 05/02/2022 03:57:07 ( 16.06, 139.51)
20 05/02/2022 14:45:46 ( 22.69, 163.52) 05/02/2022 14:49:22 ( 10.01, 160.51)
21 05/03/2022 03:36:21 ( 10.02, 145.67) 05/03/2022 03:39:57 ( 22.70, 142.65)
22 05/03/2022 14:29:56 ( 11.42, 165.59) 05/03/2022 14:30:20 ( 10.01, 165.27)
23 05/03/2022 16:08:14 ( 22.68, 142.91) 05/03/2022 16:11:49 ( 10.06, 139.90)
24 05/04/2022 03:17:19 ( 10.02, 150.43) 05/04/2022 03:20:54 ( 22.64, 147.43)
25 05/04/2022 15:49:12 ( 22.67, 147.66) 05/04/2022 15:52:47 ( 10.05, 144.66)
26 05/05/2022 02:58:16 ( 10.03, 155.19) 05/05/2022 03:01:51 ( 22.65, 152.19)
27 05/05/2022 15:30:09 ( 22.67, 152.42) 05/05/2022 15:33:44 ( 10.05, 149.42)
28 05/06/2022 02:39:14 ( 10.03, 159.95) 05/06/2022 02:42:49 ( 22.66, 156.95)
29 05/06/2022 15:11:07 ( 22.66, 157.18) 05/06/2022 15:14:42 ( 10.04, 154.18)
30 05/07/2022 02:20:11 ( 10.04, 164.71) 05/07/2022 02:23:46 ( 22.67, 161.70)
